This is the latest recevied weather packets stored in our database for station/object OH6GKW. If no packets are shown the sender has not sent any weather packets the latest 10 day(s).
| Time | Temp. | Humidity | Pressure | Rain* | Wind** | Luminosity | Snow |
|---|---|---|---|---|---|---|---|
| 1787836728 | 21.11° C | 45% | 1025.1 hPa | 0 mm | - | 479 W/m² | - |
| 1787836421 | 21.67° C | 47% | 1025.2 hPa | 0 mm | - | 486 W/m² | - |
| 1787836112 | 21.11° C | 48% | 1025.2 hPa | 0 mm | - | 494 W/m² | - |
| 1787835811 | 20.56° C | 48% | 1025.2 hPa | 0 mm | - | 501 W/m² | - |
| 1787835533 | 20.56° C | 45% | 1025.4 hPa | 0 mm | - | 509 W/m² | - |
| 1787835225 | 20.56° C | 48% | 1025.4 hPa | 0 mm | - | 516 W/m² | - |
| 1787834921 | 20.56° C | 46% | 1025.4 hPa | 0 mm | - | 523 W/m² | - |
| 1787834609 | 20.56° C | 47% | 1025.4 hPa | 0 mm | - | 528 W/m² | - |
| 1787834323 | 21.11° C | 47% | 1025.4 hPa | 0 mm | - | 533 W/m² | - |
| 1787834019 | 21.11° C | 45% | 1025.4 hPa | 0 mm | - | 540 W/m² | - |
| 1787833711 | 21.67° C | 49% | 1025.5 hPa | 0 mm | - | 542 W/m² | - |
| 1787833426 | 21.11° C | 50% | 1025.5 hPa | 0 mm | - | 547 W/m² | - |
| 1787833117 | 20.56° C | 49% | 1025.5 hPa | 0 mm | - | 544 W/m² | - |
| 1787832810 | 20.56° C | 47% | 1025.6 hPa | 0 mm | - | 563 W/m² | - |
| 1787832537 | 20.56° C | 49% | 1025.6 hPa | 0 mm | - | 563 W/m² | - |
| 1787832232 | 20.56° C | 48% | 1025.6 hPa | 0 mm | - | 565 W/m² | - |
| 1787831919 | 20.56° C | 49% | 1025.6 hPa | 0 mm | - | 570 W/m² | - |
| 1787831612 | 20.56° C | 47% | 1025.6 hPa | 0 mm | - | 574 W/m² | - |
| 1787831324 | 20.56° C | 47% | 1025.6 hPa | 0 mm | - | 575 W/m² | - |
| 1787831017 | 20° C | 46% | 1025.7 hPa | 0 mm | - | 581 W/m² | - |
| 1787830709 | 20.56° C | 52% | 1025.7 hPa | 0 mm | - | 582 W/m² | - |
| 1787830436 | 20° C | 51% | 1025.7 hPa | 0 mm | - | 584 W/m² | - |
| 1787830113 | 20.56° C | 50% | 1025.8 hPa | 0 mm | - | 586 W/m² | - |
| 1787829837 | 20.56° C | 50% | 1025.8 hPa | 0 mm | - | 591 W/m² | - |
| 1787829528 | 20.56° C | 51% | 1025.8 hPa | 0 mm | - | 595 W/m² | - |
* Rain since midnight (hover to see other rain measurements)
** Current wind speed in m/s (hover to see current wind gust speed)